Location: Buch
(49.7331°N, 12.1098°E)
Time: 04:21:41
(UTC+00:00)

Cosmos 2278 Rocket - Pass Details

Date: 12 May 2021
Orbit: 841 x 845 km, 71.0° (Epoch: 23 June)

Event Time Altitude Azimuth Distance (km) Brightness Sun altitude
Rises 21:48:06 0° 240° (WSW) 3,390 5.2 -19.6°
Reaches altitude 10° 21:50:48 10° 250° (WSW) 2,459 4.6 -19.8°
Maximum altitude 21:55:49 32° 313° (NW) 1,411 3.9 -20.1°
Drops below altitude 10° 22:00:53 10° 16° (NNE) 2,471 5.4 -20.3°
Sets 22:03:36 0° 27° (NNE) 3,409 6.1 -20.4°
